User: anonymous   Login
Location: Theydon Bois
(51.6750°N, 0.1050°E)
Time: 00:48:50
(UTC+00:00)
Language:

SL-08 R/B - Orbit

View from above orbital plane
View from above orbital plane
View from above satellite
View from above satellite

Ground track
Ground track

The orbit data is extracted from the following two-line orbital elements,

1 27819U 03023B   18019.24072698  .00000028  00000-0  13399-4 0  9991
2 27819  82.9457 225.0094 0046378 179.2404 279.3761 13.74203611733546
Epoch (UTC): 19 January 2018 05:46:38
Eccentricity: 0.0046378
inclination: 82.9457°
perigee height: 950 km
apogee height: 1018 km
right ascension of ascending node: 225.0094°
argument of perigee: 179.2404°
revolutions per day: 13.74203611
mean anomaly at epoch: 279.3761°
orbit number at epoch: 73354

The dashed part of the orbit path shows where the satellite is in the earth's shadow,  

DLR